Tracking 21612 objects as of 22-Oct-2020
HD Live streaming from Space Station
objects crossing your sky now

GONETS M 17

Track GONETS M 17 now!
10-day predictions


NORAD ID: 46486
Int'l Code: 2020-068A
Perigee: 1,499.2 km
Apogee: 1,519.4 km
Inclination: 82.5 °
Period: 116.0 minutes
Semi major axis: 7880 km
RCS: Unknown
Launch date: September 28, 2020
Source: Commonwealth of Independent States (former USSR) (CIS)
Launch site: PLESETSK MISSILE AND SPACE COMPLEX (PKMTR)
aabbcc
Your satellite tracking list
Your tracking list is empty




NASA's NSSDC Master Catalog

Two Line Element Set (TLE):
1 46486U 20068A   20296.38594831  .00000010  00000-0  00000+0 0  9994
2 46486  82.5020 191.2970 0012854 209.2608 150.7751 12.41044291  2975
Source of the keplerian elements: AFSPC